Regional Weather Roundup
Issued by NWS

Home | Current Version | Previous Version | Graphics & Text | Print | Product List | Glossary On
Versions: 1 2 3 4 5 6 7 8 9 10 11 12 13 14 15 16 17 18 19 20 21 22 23 24 25 26 27 28 29 30 31 32 33 34 35 36 37 38 39 40 41 42 43 44 45 46 47 48 49 50
000
ASUS43 KMKX 221111
RWRWI

WISCONSIN REGIONAL WEATHER ROUNDUP
NATIONAL WEATHER SERVICE MILWAUKEE/SULLIVAN WI
600 AM CDT TUE AUG 22 2017

NOTE: "FAIR" INDICATES FEW OR NO CLOUDS BELOW 12,000 FEET WITH NO
SIGNIFICANT WEATHER AND/OR OBSTRUCTIONS TO VISIBILITY.

WIZ001-002-006>008-014>016-023>028-221200-
NORTHWEST WISCONSIN

CITY           SKY/WX    TMP DP  RH WIND       PRES   REMARKS
SUPERIOR ARPT    N/A     55  53  95 NW12      29.90R
ASHLAND        MOCLDY    55  54  96 W7        29.86R
HAYWARD        CLOUDY    57  54  89 MISG      29.89R
SIREN          CLEAR     56  55  95 NW7       29.93R
CUMBERLAND     PTCLDY    57  54  88 NW12G20   29.91R
RICE LAKE      PTCLDY    58  56  93 NW6       29.91R
CHETEK         PTCLDY    59  58  94 NW8       29.90R
LADYSMITH      MOCLDY    58  56  94 NW8       29.89R
EAU CLAIRE     CLEAR     62  59  90 NW10      29.87R
MENOMONIE      CLEAR     62  59  91 W10       29.89R
NEW RICHMOND   MOCLDY    59  59  98 NW10G16   29.93R
OSCEOLA        PTCLDY    60  60 100 NW6       29.96R
$$

WIZ003>005-009-010-017-018-221200-
NORTH CENTRAL WISCONSIN

CITY           SKY/WX    TMP DP  RH WIND       PRES   REMARKS
MANITOWISH WTR CLOUDY    55  55 100 N8        29.84R
ARBOR VITAE    CLOUDY    57  55  92 NW10      29.83R
WOODRUFF       CLOUDY    57  55  92 NW10      29.83R
RHINELANDER    CLOUDY    59  55  87 NW8       29.83R
EAGLE RIVER    CLOUDY    56  55  94 NW9       29.82R
LAND O LAKES   CLOUDY    56  54  92 N7        29.82R
PHILLIPS       CLOUDY    57  56  95 NW5       29.85R
TOMAHAWK         N/A     58  55  88 NW8       29.84R
MEDFORD        PTCLDY    58  55  88 NW12      29.85R
MERRILL        PTCLDY    61  57  88 N9G21     29.82R
$$

WIZ029-030-035-036-043>047-221200-
CENTRAL WISCONSIN

CITY           SKY/WX    TMP DP  RH WIND       PRES   REMARKS
WAUSAU         CLOUDY    65  58  78 NW17G24   29.79R
MOSINEE        MOCLDY    64  63  94 W12       29.80R
MARSHFIELD     CLEAR     63  59  87 NW13      29.82R
STEVENS POINT  CLOUDY    64  63  98 W7        29.80R
WAUPACA        MOCLDY    67  64  88 W7        29.79R
WAUTOMA        CLOUDY    65  63  93 SW7       29.81R
WISC RAPIDS    CLOUDY    66  63  90 NW9       29.82R
CAMP DOUGLAS   MOCLDY    64  64 100 W10       29.83R
$$

WIZ011>013-019>022-031-037>040-048>050-221200-
NORTHEAST WISCONSIN

CITY           SKY/WX    TMP DP  RH WIND       PRES   REMARKS
ANTIGO         CLOUDY    62  59  90 NW14G22   29.79R
SHAWANO        MOCLDY    67  63  85 SW7       29.75R
OCONTO         PTCLDY    65  62  89 W7        29.72R
STURGEON BAY   PTCLDY    67  63  87 W12       29.72R
GREEN BAY      PTCLDY    65  64  97 SW7       29.75R
MANITOWOC        N/A    N/A N/A N/A MISG        N/A
APPLETON       MOCLDY    64  63  94 SW10      29.76S
CLINTONVILLE   PTCLDY    64  61  88 W7        29.76S
OSHKOSH        CLOUDY    67  62  84 SW7       29.78F
$$

WIZ032>034-041-042-053>061-221200-
SOUTHWEST WISCONSIN

CITY           SKY/WX    TMP DP  RH WIND       PRES   REMARKS
LA CROSSE      MOCLDY    68  63  84 NW9       29.86R
SPARTA         CLOUDY    61  61  98 W6        29.86R
VIROQUA        CLOUDY    63  63 100 CALM      29.87R
BOSCOBEL       CLOUDY    66  63  90 SW5       29.87R
PRAIRIE DU CHI MOCLDY    64  61  89 CALM      29.88R
PLATTEVILLE    CLOUDY    64  64 100 W6        29.89R
$$

WIZ056-057-062-063-064-067-068-221200-
SOUTH CENTRAL WISCONSIN

CITY           SKY/WX    TMP DP  RH WIND       PRES   REMARKS
REEDSBURG      CLOUDY    65  65 100 W8        29.84R
BARABOO/DELLS  CLOUDY    64  61  90 W7        29.84S
LONE ROCK      CLOUDY    65  64  97 SW5       29.85R
MINERAL POINT  CLOUDY    64  64 100 W6        29.88S
MADISON        CLOUDY    66  62  87 VRB3      29.84R
MIDDLETON      CLOUDY    66  65  96 W6        29.86R
WATERTOWN      CLOUDY    65  65 100 W3        29.83R
MONROE         CLOUDY    64  63  94 W12       29.86S
JANESVILLE     CLOUDY    66  64  94 W7        29.85S
$$

WIZ051-052-058>065-066-070>072-221200-
SOUTHEAST WISCONSIN

CITY           SKY/WX    TMP DP  RH WIND       PRES   REMARKS
MILWAUKEE      CLOUDY    72  64  76 W9        29.81S
WAUKESHA       CLEAR     66  63  88 SW7       29.84S
MILWAUKEE/TIMM CLOUDY    68  59  73 W8        29.82S
RACINE         CLOUDY    72  65  78 W13       29.84R
KENOSHA        CLOUDY    71  64  78 W12       29.84R
FOND DU LAC    CLOUDY    67  61  81 SW10      29.80R
SHEBOYGAN      MOCLDY    66  65  96 W8        29.78R
WEST BEND      CLOUDY    64  63  94 W10       29.81R
JUNEAU         CLOUDY    64  62  93 SW7       29.84S
$$

LSZ147-162-221200-
LAKE SUPERIOR

STATION/POSITION TIME  TEMP    WIND        PRES    WAVE
                       AIR SEA DIR/SP/G            HT/PER
                 (UTC) (F)     (DEG/KT/KT) (MB)    (FT/S)
W MID LAKE BUOY  1050   60 60  290/ 10/ 12 1008.3S   1/ 3
DEVILS ISLAND    1100   60     300/ 18/ 20 1010.4R
PORT WING        0840   62     310/  6/ 10 1010.5
SAXON HARBOR     1040   59     220/  4/  9 1010.2R
$$

LMZ867-665-643>646-221200-
LAKE MICHIGAN

STATION/POSITION TIME  TEMP    WIND        PRES    WAVE
                       AIR SEA DIR/SP/G            HT/PER
                 (UTC) (F)     (DEG/KT/KT) (MB)    (FT/S)
S GREEN BAY BUOY 1100   69 71  240/ 17/ 21 1006.2R
N MID LAKE BUOY  1050   69 68  240/ 14/ 14 1004.6F   2/ 4
NORTHPORT PIER   1040   69     260/  6/ 16 1005.1S
KEWAUNEE LAKESHO 1048   68     270/ 11/ 19 1006.0R
SHEBOYGAN LAKESH 1100   69     270/ 14/ 21 1007.7R
PORT WASHINGTON  1030   70     260/ 10/ 14 1009.1F
ATWATER BUOY     1009   69 59  250/ 10/ 14 1009.4F
MILWAUKEE LAKESH 1050   71     260/ 11/ 14   N/A
S MID LAKE BUOY  1050   73 72  290/ 17/ 21 1008.9F   3/ 5
KENOSHA   LAKESH 1100   72     260/ 10/ 15 1010.2
$$

TC  - TEMPERATURE IN CELSIUS
VSB - VISIBILITY IN STATUTE MILES
WCI - WIND CHILL INDEX
HX  - HEAT INDEX





USA.gov is the U.S. government's official web portal to all federal, state and local government web resources and services.